Weather History for LEPP - October, 2011

Change the Weather History Date:

Wednesday, October 5, 2011

  Actual Average Record
Temperature  
Mean Temperature 68 °F -  
Max Temperature 77 °F 62 °F 84 °F (2004)
Min Temperature 59 °F 47 °F 39 °F (2008)
Cooling Degree Days 3    
Growing Degree Days 18 (Base 50)    
Moisture  
Dew Point 55 °F    
Average Humidity 67    
Maximum Humidity 88    
Minimum Humidity 44    
Precipitation  
Precipitation 0.00 in - - ()
Sea Level Pressure  
Sea Level Pressure 30.26 in    
Wind  
Wind Speed 7 mph ()    
Max Wind Speed 15 mph    
Max Gust Speed -    
Visibility 5.4 miles    
Events      
Averages and records for this station are not official NWS values.
T = Trace of Precipitation, MM = Missing Value Source: Averaged Metar Reports

Daily Weather History Graph

Daily Weather History Graph

Search for Another Location

Airport or City:

Trip Planner

Search our weather history database for the weather conditions in past years. The results will help you decide how hot, cold, wet, or windy it might be!

Date:

Astronomy

Oct. 05, 2011 Rise Set
Actual Time 8:07 AM CEST 7:41 PM CEST
Civil Twilight 7:39 AM CEST 8:09 PM CEST
Nautical Twilight 7:06 AM CEST 8:42 PM CEST
Astronomical Twilight 6:33 AM CEST 9:15 PM CEST
Moon 4:21 PM CEST 1:30 AM CEST
Length of Visible Light 12h 30m
Length of Day
11h 34m
Waxing Gibbous, 63% of the Moon is Illuminated
Oct 5
Waxing Gibbous
Oct 12
Full
Oct 20
Last Quarter
Oct 26
New
Nov 2
First Quarter

Hourly Weather History & Observations

Time (CEST) Temp. Dew Point Humidity Pressure Visibility Wind Dir Wind Speed Gust Speed Precip Events Conditions
12:00 AM 62.6 °F 57.2 °F 82% 30.33 in 5.6 mi NW 6.9 mph - N/A   Unknown
5:30 AM 60.8 °F 55.4 °F 82% 30.30 in 5.6 mi NNW 10.4 mph - N/A   Partly Cloudy
6:00 AM 59.0 °F 55.4 °F 88% 30.27 in 5.6 mi NNW 10.4 mph - N/A   Partly Cloudy
6:30 AM 60.8 °F 55.4 °F 82% 30.30 in 5.6 mi NNW 9.2 mph - N/A   Partly Cloudy
7:00 AM 59.0 °F 55.4 °F 88% 30.30 in 5.6 mi NW 6.9 mph - N/A   Partly Cloudy
7:30 AM 59.0 °F 55.4 °F 88% 30.30 in 5.6 mi NNW 6.9 mph - N/A   Partly Cloudy
8:00 AM 59.0 °F 53.6 °F 82% 30.30 in 5.0 mi NW 3.5 mph - N/A   Partly Cloudy
8:30 AM 59.0 °F 55.4 °F 88% 30.30 in 5.0 mi Variable 2.3 mph - N/A   Partly Cloudy
9:00 AM 59.0 °F 53.6 °F 82% 30.30 in 5.0 mi Variable 1.2 mph - N/A   Partly Cloudy
9:30 AM 60.8 °F 55.4 °F 82% 30.30 in 5.0 mi Calm Calm - N/A   Partly Cloudy
10:00 AM 62.6 °F 55.4 °F 77% 30.30 in 5.6 mi Calm Calm - N/A   Partly Cloudy
10:30 AM 68.0 °F 55.4 °F 64% 30.33 in 5.6 mi Calm Calm - N/A   Partly Cloudy
11:00 AM 68.0 °F 55.4 °F 64% 30.30 in - NNW 4.6 mph - N/A   Clear
11:30 AM 69.8 °F 55.4 °F 60% 30.30 in - North 6.9 mph - N/A   Clear
12:00 PM 71.6 °F 55.4 °F 57% 30.30 in - NW 10.4 mph - N/A   Clear
1:00 PM 73.4 °F 55.4 °F 53% 30.30 in - NW 11.5 mph - N/A   Clear
1:30 PM 73.4 °F 55.4 °F 53% 30.27 in - NW 10.4 mph - N/A   Clear
2:00 PM 75.2 °F 55.4 °F 50% 30.27 in - NNW 10.4 mph - N/A   Clear
2:30 PM 77.0 °F 53.6 °F 44% 30.27 in - NW 9.2 mph - N/A   Clear
3:00 PM 77.0 °F 53.6 °F 44% 30.24 in - NNW 10.4 mph - N/A   Clear
3:30 PM 77.0 °F 53.6 °F 44% 30.24 in - NW 10.4 mph - N/A   Clear
4:00 PM 77.0 °F 55.4 °F 47% 30.24 in - NNW 11.5 mph - N/A   Clear
4:30 PM 77.0 °F 53.6 °F 44% 30.21 in - NNW 11.5 mph - N/A   Clear
5:00 PM 77.0 °F 53.6 °F 44% 30.21 in - NNW 15.0 mph - N/A   Clear
5:30 PM 75.2 °F 53.6 °F 47% 30.21 in - NNW 13.8 mph - N/A   Clear
6:00 PM 75.2 °F 55.4 °F 50% 30.21 in - NNW 12.7 mph - N/A   Clear
6:30 PM 73.4 °F 55.4 °F 53% 30.21 in - NNW 12.7 mph - N/A   Clear
7:00 PM 71.6 °F 55.4 °F 57% 30.21 in - NNW 13.8 mph - N/A   Clear
7:30 PM 69.8 °F 57.2 °F 64% 30.21 in - NNW 11.5 mph - N/A   Clear
8:00 PM 68.0 °F 57.2 °F 68% 30.24 in - NNW 8.1 mph - N/A   Clear
8:30 PM 66.2 °F 57.2 °F 73% 30.24 in - NNW 5.8 mph - N/A   Clear
9:00 PM 64.4 °F 57.2 °F 77% 30.24 in - NNW 9.2 mph - N/A   Clear
9:30 PM 62.6 °F 57.2 °F 82% 30.24 in - North 5.8 mph - N/A   Clear
10:00 PM 62.6 °F 55.4 °F 77% 30.24 in - North 2.3 mph - N/A   Clear
10:30 PM 62.6 °F 55.4 °F 77% 30.24 in - Variable 1.2 mph - N/A   Clear
11:00 PM 60.8 °F 55.4 °F 82% 30.24 in - Calm Calm - N/A   Clear
11:30 PM 59.0 °F 55.4 °F 88% 30.24 in - Calm Calm - N/A   Clear